User: anonymous   Login
Location: Fort Wayne
(41.1310°N, 85.1290°W)
Time: 14:48:33
(UTC-05:00)
Language:

OAO 2 Rocket - Orbit

View from above orbital plane
View from above orbital plane
View from above satellite
View from above satellite

Ground track
Ground track

The orbit data is extracted from the following two-line orbital elements,

1  3598U 68110B   18022.90403283 +.00000046 +00000-0 +15106-4 0  9990
2  3598 034.9926 176.4691 0049653 211.0082 148.7675 14.54351644577571
Epoch (UTC): 22 January 2018 21:41:48
Eccentricity: 0.0049653
inclination: 34.9926°
perigee height: 676 km
apogee height: 746 km
right ascension of ascending node: 176.4691°
argument of perigee: 211.0082°
revolutions per day: 14.54351644
mean anomaly at epoch: 148.7675°
orbit number at epoch: 57757

The dashed part of the orbit path shows where the satellite is in the earth's shadow,  

DLR